Regional Weather Roundup
Issued by NWS

Home | Current Version | Previous Version | Graphics & Text | Print | Product List | Glossary On
Versions: 1 2 3 4 5 6 7 8 9 10 11 12 13 14 15 16 17 18 19 20 21 22 23 24 25 26 27 28 29 30 31 32 33 34 35 36 37 38 39 40 41 42 43 44 45 46 47 48
000
ASUS45 KBOU 181707
RWRCO

WEATHER ROUNDUP FOR COLORADO
NATIONAL WEATHER SERVICE DENVER/BOULDER CO
1100 AM MDT THU SEP 18 2014

NOTE: "FAIR" INDICATES FEW OR NO CLOUDS BELOW 12000 FEET WITH NO
SIGNIFICANT WEATHER AND/OR OBSTRUCTIONS TO VISIBILITY.

COZ001>005-013-030-031-181800-
...NORTHWEST COLORADO...

CITY           SKY/WX    TMP DP  RH WIND       PRES   REMARKS
CRAIG          SUNNY     71  44  37 CALM      30.12F
HAYDEN         SUNNY     72  39  30 E5        30.14F
MEEKER         SUNNY     69  41  36 CALM      30.13F
MOUNT WERNER   NOT AVBL
STEAMBOAT SPGS NOT AVBL
WALDEN         SUNNY     61  36  39 CALM      30.27S
$$

COZ006>008-011-181800-
...WEST CENTRAL VALLEYS...

CITY           SKY/WX    TMP DP  RH WIND       PRES   REMARKS
GRAND JUNCTION SUNNY     74  41  30 S6        30.05S
MONTROSE       SUNNY     74  43  32 CALM      30.12F
EAGLE          SUNNY     63  37  39 CALM      30.21F
RIFLE          SUNNY     70  42  36 VRB3      30.10F
DELTA          SUNNY     74  41  30 CALM      30.08F HAZE
NUCLA          SUNNY     70  45  40 CALM      30.16F
$$

COZ017>023-064>068-181800-
...SOUTHWEST COLORADO...

CITY           SKY/WX    TMP DP  RH WIND       PRES   REMARKS
DURANGO        SUNNY     69  44  40 CALM      30.16F
CORTEZ         SUNNY     70  47  43 CALM      30.12F
PAGOSA SPRINGS SUNNY     73  27  18 CALM      30.22F
TELLURIDE      NOT AVBL
WOLF CREEK PAS SUNNY     54  32  43 NE14      30.51F
$$

COZ009-010-012-014-032>034-037-058>063-181800-
...CENTRAL COLORADO...

CITY           SKY/WX    TMP DP  RH WIND       PRES   REMARKS
ASPEN          SUNNY     68  37  32 N8        30.23F
BUENA VISTA    SUNNY     68  34  28 CALM      30.27F
COPPER MTN     SUNNY     64  23  20 S7        30.55S
BERTHOUD PASS  FAIR      52  50  93 MISG      30.60S
COTTONWOOD PAS SUNNY     68  30  24 SE6       30.40S
GUNNISON       SUNNY     61  37  41 CALM      30.29F
KREMMLING      SUNNY     61  34  36 CALM      30.26F
LEADVILLE      SUNNY     61  30  31 S5        30.38F
MONARCH PASS   SUNNY     54  32  43 NE14      30.64S
SALIDA         SUNNY     67  35  30 CALM      30.32F
SUNLIGHT       SUNNY     63  36  36 CALM      30.47S
WILKERSON PASS NOT AVBL
$$

COZ069>075-181800-
...SAN LUIS VALLEY/SANGRE DE CRISTO MOUNTAINS...

CITY           SKY/WX    TMP DP  RH WIND       PRES   REMARKS
ALAMOSA        SUNNY     66  43  43 VRB5      30.23F
LA VETA PASS   NOT AVBL
SAGUACHE       NOT AVBL
$$

COZ035-036-038>040-181800-
...NORTHERN COLORADO FRONT RANGE...

CITY           SKY/WX    TMP DP  RH WIND       PRES   REMARKS
DENVER INTL AP MOSUNNY   78  41  26 VRB3      30.07S
DMNS CITY PARK   N/A     79  41  25 SW2       30.06S
AURORA         NOT AVBL
FRONT RANGE AP MOSUNNY   81  43  26 S6        30.08S
ERIE MUNI ARPT SUNNY     80  37  21 CALM      30.05S
BOULDER MUN AP SUNNY     77  45  31 CALM      30.05F
CENTENNIAL     MOSUNNY   76  39  26 VRB3      30.10S
BROOMFIELD     NOT AVBL
FORT COLLINS   SUNNY     73  48  40 S3        30.05S
LONGMONT       SUNNY     79  45  29 E5        30.05F
$$

COZ041-046-047-076>085-087-088-181800-
...PIKES PEAK/PALMER DIVIDE AND SOUTHERN FOOTHILLS...

CITY           SKY/WX    TMP DP  RH WIND       PRES   REMARKS
COLO. SPRINGS  MOSUNNY   82  34  17 S10       30.14S
A. F. ACADEMY  NOT AVBL
ELLICOTT       NOT AVBL
FALCON         SUNNY     79  32  18 SW12      30.19S
FORT CARSON    NOT AVBL
LIMON          SUNNY     81  40  23 S5        30.07S
MONUMENT HILL  SUNNY     77  34  20 CALM      30.18S
TRINIDAD       SUNNY     78  35  21 E7        30.12R
$$

COZ042>045-048>051-090-091-181800-
...NORTHEAST COLORADO...

CITY           SKY/WX    TMP DP  RH WIND       PRES   REMARKS
GREELEY ARPT   SUNNY     75  48  38 CALM      30.03F
AKRON          SUNNY    N/A N/A N/A MISG      30.03F
BURLINGTON     SUNNY     72  60  66 VRB6      30.02F
WRAY           MOSUNNY   74  61  62 E5        30.00F
STERLING       SUNNY     75  55  50 S7        29.99S
HOLYOKE        CLOUDY    72  64  78 SE12      30.01S
FORT MORGAN    SUNNY     77  46  33 S3        30.02F
$$

COZ086-089-092>099-181800-
...SOUTHEAST COLORADO...

CITY           SKY/WX    TMP DP  RH WIND       PRES   REMARKS
PUEBLO         SUNNY     84  39  20 CALM      30.03S
LA JUNTA       SUNNY     77  45  32 S6        30.02S
LAMAR          SUNNY     79  45  29 VRB5      29.98F
SPRINGFIELD      N/A     83  49  30 S15       30.03S
$$



USA.gov is the U.S. government's official web portal to all federal, state and local government web resources and services.